Location: Lafig�re
(44.4503°N, 4.0357°E)
Time: 02:08:51
(UTC+00:00)

Transit 4A - Pass Details

Date: 26 January 2021
Orbit: 866 x 979 km, 66.8° (Epoch: 24 February)

Event Time Altitude Azimuth Distance (km) Brightness Sun altitude
Rises 04:35:32 0° 317° (NW) 3,607 - -27.2°
Reaches altitude 10° 04:38:39 10° 303° (WNW) 2,638 - -26.7°
Maximum altitude 04:43:10 22° 255° (WSW) 1,884 - -25.9°
Drops below altitude 10° 04:47:36 10° 206° (SSW) 2,566 - -25.1°
Exits shadow 04:49:09 - 198° (SSW) 3,022 10.4 -24.8°
Sets 04:50:35 0° 192° (SSW) 3,483 10.8 -24.6°
